When you browse on this site, cookies collect data to enhance your experience and personalize the content and advertising you see.
Visit our Privacy Policy to learn more. By continuing to use the site, you agree to this use of cookies and data.

Tiempo cada hora Yurovka

Hoy, 25 Septiembre, Viernes

Tiempo Temperatura Precipitaciones Viento Presión Humedad
00:00 +14°C° 0 mm 2 mps 741 mmHg 60%
01:00 +13°C° 0 mm 3 mps 741 mmHg 61%
02:00 +13°C° 0 mm 2 mps 741 mmHg 59%
03:00 +12°C° 0 mm 3 mps 741 mmHg 58%
04:00 +12°C° 0 mm 3 mps 741 mmHg 58%
05:00 +11°C° 0 mm 3 mps 741 mmHg 57%
06:00 +13°C° 0 mm 3 mps 741 mmHg 56%
07:00 +14°C° 0 mm 4 mps 741 mmHg 54%
08:00 +15°C° 0 mm 4 mps 741 mmHg 51%
09:00 +17°C° 0 mm 4 mps 741 mmHg 48%
10:00 +19°C° 0 mm 4 mps 741 mmHg 46%
11:00 +20°C° 0 mm 4 mps 741 mmHg 44%
12:00 +21°C° 0 mm 4 mps 741 mmHg 42%
13:00 +22°C° 0 mm 4 mps 741 mmHg 40%
14:00 +23°C° 0 mm 4 mps 741 mmHg 41%
15:00 +21°C° 0 mm 4 mps 741 mmHg 45%
16:00 +20°C° 0 mm 4 mps 740 mmHg 50%
17:00 +18°C° 0 mm 4 mps 740 mmHg 54%
18:00 +18°C° 0 mm 4 mps 740 mmHg 56%
19:00 +17°C° 0 mm 4 mps 740 mmHg 57%
20:00 +15°C° 0 mm 5 mps 740 mmHg 59%
21:00 +15°C° 0 mm 4 mps 740 mmHg 60%
22:00 +14°C° 0 mm 4 mps 740 mmHg 61%
23:00 +14°C° 0 mm 4 mps 740 mmHg 63%

Mañana, 26 Septiembre, Sábado

Tiempo Temperatura Precipitaciones Viento Presión Humedad
00:00 +13°C° 0 mm 4 mps 740 mmHg 64%
01:00 +13°C° 0 mm 4 mps 740 mmHg 66%
02:00 +13°C° 0 mm 4 mps 740 mmHg 67%
03:00 +12°C° 0 mm 4 mps 740 mmHg 68%
04:00 +12°C° 0 mm 4 mps 740 mmHg 68%
05:00 +12°C° 0 mm 4 mps 740 mmHg 69%
06:00 +13°C° 0 mm 4 mps 740 mmHg 66%
07:00 +14°C° 0 mm 5 mps 740 mmHg 64%
08:00 +15°C° 0 mm 5 mps 740 mmHg 61%
09:00 +16°C° 0 mm 6 mps 741 mmHg 56%
10:00 +19°C° 0 mm 6 mps 741 mmHg 50%
11:00 +21°C° 0 mm 6 mps 741 mmHg 45%
12:00 +21°C° 0 mm 6 mps 741 mmHg 44%
13:00 +21°C° 0 mm 6 mps 741 mmHg 43%
14:00 +22°C° 0 mm 6 mps 741 mmHg 42%
15:00 +21°C° 0 mm 6 mps 741 mmHg 46%
16:00 +19°C° 0 mm 5 mps 741 mmHg 50%
17:00 +17°C° 0 mm 5 mps 740 mmHg 54%
18:00 +17°C° 0 mm 5 mps 741 mmHg 53%
19:00 +16°C° 0 mm 5 mps 741 mmHg 53%
20:00 +16°C° 0 mm 5 mps 741 mmHg 52%
21:00 +16°C° 0 mm 5 mps 741 mmHg 49%
22:00 +17°C° 0 mm 5 mps 741 mmHg 46%
23:00 +17°C° 0 mm 6 mps 741 mmHg 42%

Pasado mañana, 27 Septiembre, Domingo

Tiempo Temperatura Precipitaciones Viento Presión Humedad
00:00 +16°C° 0 mm 6 mps 741 mmHg 42%
01:00 +16°C° 0 mm 6 mps 741 mmHg 41%
02:00 +15°C° 0 mm 6 mps 742 mmHg 40%
03:00 +15°C° 0 mm 6 mps 742 mmHg 40%
04:00 +14°C° 0 mm 6 mps 742 mmHg 41%
05:00 +13°C° 0 mm 6 mps 742 mmHg 41%
06:00 +13°C° 0 mm 6 mps 742 mmHg 43%
07:00 +12°C° 0 mm 7 mps 742 mmHg 45%
08:00 +12°C° 0 mm 7 mps 743 mmHg 46%
09:00 +15°C° 0 mm 7 mps 743 mmHg 44%
10:00 +16°C° 0 mm 8 mps 743 mmHg 41%
11:00 +17°C° 0 mm 8 mps 743 mmHg 39%
12:00 +17°C° 0 mm 8 mps 743 mmHg 39%
13:00 +18°C° 0 mm 8 mps 742 mmHg 39%
14:00 +20°C° 0 mm 8 mps 742 mmHg 39%
15:00 +18°C° 0 mm 7 mps 742 mmHg 40%
16:00 +17°C° 0 mm 7 mps 742 mmHg 41%
17:00 +17°C° 0 mm 6 mps 742 mmHg 42%
18:00 +17°C° 0 mm 6 mps 742 mmHg 41%
19:00 +17°C° 0 mm 6 mps 742 mmHg 39%
20:00 +17°C° 0 mm 7 mps 742 mmHg 37%
21:00 +16°C° 0 mm 6 mps 742 mmHg 37%
22:00 +16°C° 0 mm 6 mps 743 mmHg 38%
23:00 +15°C° 0 mm 6 mps 743 mmHg 38%

28 Septiembre, Lunes

Tiempo Temperatura Precipitaciones Viento Presión Humedad
00:00 +15°C° 0 mm 6 mps 743 mmHg 38%
01:00 +15°C° 0 mm 6 mps 743 mmHg 38%
02:00 +15°C° 0 mm 5 mps 743 mmHg 38%
03:00 +13°C° 0.8 mm 5 mps 743 mmHg 52%
04:00 +11°C° 0.8 mm 6 mps 743 mmHg 67%
05:00 +9°C° 0.8 mm 6 mps 743 mmHg 82%
06:00 +10°C° 0.3 mm 6 mps 743 mmHg 80%
07:00 +10°C° 0.3 mm 6 mps 743 mmHg 79%
08:00 +11°C° 0.3 mm 6 mps 743 mmHg 77%
09:00 +11°C° 0.1 mm 6 mps 743 mmHg 77%
10:00 +13°C° 0.1 mm 6 mps 743 mmHg 77%
11:00 +14°C° 0.1 mm 6 mps 744 mmHg 77%
12:00 +14°C° 0 mm 6 mps 744 mmHg 73%
13:00 +15°C° 0 mm 5 mps 744 mmHg 70%
14:00 +16°C° 0 mm 5 mps 744 mmHg 67%
15:00 +15°C° 0 mm 4 mps 744 mmHg 68%
16:00 +15°C° 0 mm 4 mps 744 mmHg 70%
17:00 +14°C° 0 mm 3 mps 744 mmHg 71%
18:00 +14°C° 0 mm 4 mps 744 mmHg 70%
19:00 +14°C° 0 mm 4 mps 744 mmHg 68%
20:00 +13°C° 0 mm 4 mps 744 mmHg 66%
21:00 +13°C° 0 mm 4 mps 744 mmHg 64%
22:00 +12°C° 0 mm 4 mps 744 mmHg 62%
23:00 +12°C° 0 mm 4 mps 744 mmHg 60%

29 Septiembre, Martes

Tiempo Temperatura Precipitaciones Viento Presión Humedad
00:00 +12°C° 0 mm 4 mps 744 mmHg 58%
01:00 +12°C° 0 mm 4 mps 744 mmHg 55%
02:00 +12°C° 0 mm 4 mps 744 mmHg 53%
03:00 +12°C° 0 mm 4 mps 744 mmHg 51%
04:00 +13°C° 0 mm 5 mps 744 mmHg 49%
05:00 +13°C° 0 mm 5 mps 744 mmHg 48%
06:00 +13°C° 0 mm 5 mps 744 mmHg 49%
07:00 +13°C° 0 mm 6 mps 744 mmHg 50%
08:00 +13°C° 0 mm 6 mps 744 mmHg 51%
09:00 +14°C° 0 mm 7 mps 743 mmHg 48%
10:00 +15°C° 0 mm 7 mps 743 mmHg 46%
11:00 +16°C° 0 mm 7 mps 743 mmHg 44%
12:00 +16°C° 0 mm 7 mps 743 mmHg 45%
13:00 +16°C° 0 mm 7 mps 743 mmHg 46%
14:00 +15°C° 0 mm 7 mps 742 mmHg 47%
15:00 +14°C° 0.3 mm 7 mps 742 mmHg 50%
16:00 +14°C° 0.3 mm 7 mps 742 mmHg 54%
17:00 +13°C° 0.3 mm 6 mps 742 mmHg 58%
18:00 +13°C° 0.2 mm 6 mps 742 mmHg 60%
19:00 +11°C° 0.2 mm 6 mps 742 mmHg 63%
20:00 +12°C° 0.2 mm 5 mps 742 mmHg 65%
21:00 +12°C° 0.1 mm 5 mps 741 mmHg 61%
22:00 +13°C° 0.1 mm 5 mps 741 mmHg 57%
23:00 +13°C° 0.1 mm 5 mps 741 mmHg 53%

30 Septiembre, Miércoles

Tiempo Temperatura Precipitaciones Viento Presión Humedad
00:00 +13°C° 0 mm 5 mps 741 mmHg 49%
01:00 +13°C° 0 mm 5 mps 740 mmHg 46%
02:00 +13°C° 0 mm 6 mps 740 mmHg 43%
03:00 +13°C° 0 mm 6 mps 740 mmHg 42%
04:00 +11°C° 0 mm 7 mps 740 mmHg 41%
05:00 +11°C° 0 mm 7 mps 740 mmHg 40%
06:00 +11°C° 0 mm 7 mps 740 mmHg 41%
07:00 +12°C° 0 mm 8 mps 740 mmHg 42%
08:00 +12°C° 0 mm 8 mps 740 mmHg 43%
09:00 +13°C° 0 mm 8 mps 740 mmHg 41%
10:00 +15°C° 0 mm 8 mps 740 mmHg 40%
11:00 +16°C° 0 mm 9 mps 740 mmHg 38%
12:00 +16°C° 0 mm 8 mps 740 mmHg 38%
13:00 +16°C° 0 mm 7 mps 740 mmHg 37%
14:00 +17°C° 0 mm 7 mps 740 mmHg 36%
15:00 +16°C° 0 mm 7 mps 740 mmHg 36%
16:00 +16°C° 0 mm 6 mps 740 mmHg 36%
17:00 +15°C° 0 mm 6 mps 740 mmHg 37%
18:00 +15°C° 0 mm 6 mps 740 mmHg 35%
19:00 +15°C° 0 mm 7 mps 740 mmHg 34%
20:00 +15°C° 0 mm 7 mps 741 mmHg 32%
21:00 +15°C° 0 mm 7 mps 741 mmHg 34%
22:00 +14°C° 0 mm 7 mps 741 mmHg 35%
23:00 +14°C° 0 mm 6 mps 741 mmHg 36%
Mostrar más